Погода в Шарковщине

Хотите узнать прогноз погоды в Шарковщине? Тогда Вам сюда: Погода в Шарковщине

Поиск расширенной информации на нашем сайте:

Полезная информация:

Новости сайта



02.01.2020
Опубликован Долгосрочный прогноз погоды по городам России и ближнего зарубежья на январь 2020 года.
Карты: Прогноз на январь и февраль 2020 года, Сравнение прогнозируемой аномалии приземной температуры воздуха на январь 2020 года по разным моделям.




Погода в Шарковщине - сегодня

Время (UTC), дата Ветер
(°,м/с) 
Видим.   Явления Облачность Т
(°С)
Тd
(°С)
f(%) Тe
(°С)
Pmin
(гПа)
dP
(гПа)
Po
(мм)
O2
(г/м3)
Тmin Tmax R s Состояние
почвы
09 22.10.21 250 (З) 8-15{16}  20000 м  {морось}  8/8 600 м средняя 
[Sc|Ac trans]
+8.3 +3.1 70 +6  996.9  2.5  736  287           
12 22.10.21 250 (З) 8-14{17}  17000 м  {морось}  9/8 600 м средняя 
[Cu med, cong|Ac trans]
+7.8 +3.3 73 +5  999.1  2.1  737  288           
15 22.10.21 230 (ЮЗ) 6-10{15}  20000 м  в посл. час дождь  9/9 1080 м 
[Sc]
+7.2 +3.1 75 +5  999.7  0.6  738  289           
18 22.10.21 220 (ЮЗ) 5-10{12}  20000 м  {дождь}  8/5 1000 м средняя 
[Sc|Ac trans]
+7.7 +2.6 70 +6  999.3  -0.4  738  289    +8.9  0.0     
21 22.10.21 230 (ЮЗ) 6-12{13}  16000 м    10/8 800 м средняя 
[Cu med, cong|Ac und]
+7.3 +3.3 76 +5  998.5  -0.8  737  289           
00 23.10.21 230 (ЮЗ) 5-10{12}  14000 м  слаб. дождь  10/10 500 м 
[Frnb|Ns]
+6.1 +4.4 89 +4  997.9  -0.7  737  290      0.0     
03 23.10.21 250 (З) 5-10{12}  20000 м  {дождь, морось}  10/10 630 м 
[Frnb]
+4.2 +3.8 97 +2  1001  739  293         
06 23.10.21 260 (З) 5{10}  18000 м  слаб. морось{дождь}  8/8 570 м средняя 
[Cu hum|Ac trans]
+4.3 +3.3 93 +2  1003.5  2.4  741  293  +4.1       
09 23.10.21 250 (З) 5-10{11}  18000 м    9/9 750 м 
[Sc]
+6.1 +4.1 87 +4  1005.7  2.3  742  292           
12 23.10.21 260 (З) 6-11{11}  18000 м    8/5 600 м верхняя 
[Sc|Ci fib]
+8.1 +3.4 72 +6  1007.5  1.9  744  290           
15 23.10.21 270 (З) 4{11}  15000 м  в посл. час ливневой дождь  10/0 средняя 
[Ac As]
+6.5 +3.6 82 +5  1009.7  2.1  745  293           
18 23.10.21 280 (З) 18000 м  {ливн. осадки}  6/3 600 м средняя 
[Sc|Ac trans]
+4.5 +3.2 91 +3  1012.9  748  296    +8.4  0.0     
21 23.10.21 280 (З) 15000 м    9/9 960 м 
[Sc]
+4.4 +2.6 88 +3  1015.6  2.7  750  297           
00 24.10.21 310 (СЗ) 16000 м    9/9 570 м 
[Sc]
+4.1 +2.3 88 +3  1018.6  2.9  752  298           
03 24.10.21 330 (СЗ) 18000 м    9/9 600 м 
[Sc]
+3.1 +0.3 82 +3  1021.6  2.9  754  300           
06 24.10.21 350 (С) 18000 м  {дождь}  6/6 600 м 
[Sc]
+1.8 +0.5 91 +1  1024.4  2.7  756  303  +1.6    0.0     
09 24.10.21 310 (СЗ) 20000 м    6/4 600 м верхняя 
[Cu med, cong|Ci fib]
+3.6 -2 67 +3  1026.9  2.5  758  302           
12 24.10.21 320 (СЗ) 3{10}  20000 м    5/4 600 м верхняя 
[Cu med, cong|Ci fib]
+4.7 -1.7 63 +4  1028.3  1.5  759  301           
15 24.10.21 290 (З) 1{10}  20000 м    8/0 средняя, верхняя 
[Ac trans|Ci fib]
+3.5 +0.5 81 +4  1029.3  0.9  760  302           
18 24.10.21 250 (З) 20000 м    6/0 верхняя 
[Ci fib]
+1 -0.1 92 +2  1030.1  0.6  760  305    +5.8       
21 24.10.21 200 (Ю) 18000 м    5/0 средняя 
[Ac trans]
+0.5 -0.3 94 +1  1030.3  0.2  760  306           
00 25.10.21 210 (ЮЗ) 16000 м    ясно 
-0.5 -1.4 94 1030.5  0.1  760  307           
03 25.10.21 190 (Ю) 17000 м    ясно 
-0.9 -1.9 93 -2  1030.1  -0.4  760  307           
06 25.10.21 200 (Ю) 17000 м    4/0 верхняя 
[Ci fib]
-0.7 -1.6 94 1029.4  -0.7  759  307  -1.3         
09 25.10.21 240 (ЮЗ) 18000 м    ясно 
+6.4 +3 79 +5  1028.9  759  299           
Время (UTC), дата Ветер
(°,м/с) 
Видим.   Явления Облачность Т
(°С)
Тd
(°С)
f(%) Тe
(°С)
Pmin
(гПа)
dP
(гПа)
Po
(мм)
O2
(г/м3)
Тmin Tmax R s Состояние
почвы

Для получения пояснительной информации подведите курсор к названию столбца.

ПОГОДА в Шарковщине - архив

Всё, что Вы хотите узнать о погоде в Шарковщине - удобно и подробно!

Выберите нужную дату (начиная с 1 января 2019* года) и нажмите кнопку "Найти".
Будут отображены архивные сводки погоды по пункту Шарковщина, начиная с указанной даты.


Отображать данные в формате CSV (для использования в таблицах Excel)


Внимание! Наш архив погоды предназначен исключительно для личного некоммерческого использования в познавательных целях. Если Вам необходимы официальные справки о состоянии погоды (для производственных, юридических, коммерческих и т.п. целей), обращайтесь в органы Росгидромета.

*Примечание: данная дата относится к архиву по метеостанциям СССР (Россия, СНГ, Балтия).
Архив по метеостанциям Зарубежной Европы и Азии (кроме Китая) хранится 10 дней, по другим регионам земного шара (Китай, Африка, Америка, Австралия, Океания) - 1 день.

Шарковщина - район местоположения метеостанции


Название, широта, долгота, высота метеостанции:
Шарковщина 55.4°ш. 27.5°д. 131 м над ур. моря [Беларусь]

Дополнительная информация

В oтличие oт бoльшинства пoгoдных сайтoв мы публикуем пoдрoбную метеoинфoрмацию в детальнoм прoфессиoнальнoм фoрмате.

Характеристики температуры и влажнoсти вoздуха измеряются на высoте 2 м в тени вдали oт зданий и деревьев.
Скoрoсть ветра измеряется на высoте 10 м (на урoвне рoста челoвека скoрoсть ветра ниже в 1.5-2 раза). Если метеoстанция нахoдится в гoрoде или в лесу, тo скoрoсть ветра занижена на 2-4 м/с пo сравнению с oткрытым местoм. Скoрoсть ветра над акватoриями крупных рек и oзёр, а также на вершинах хoлмoв на 2-5 м/с выше, чем в oбычных услoвиях.
Атмoсфернoе давление в разных тoчках местнoсти мoжет значительнo oтличаться oт давления на метеoстанции, в зависимoсти oт услoвий рельефа (при пoдъёме на 10 м давление пoнижается примернo на 1 мм рт.ст.).